SL-14 R/B, 16144

Orbit data source: Space-Track

SL-14 R/B, 16144 is space debris in LEO originally from a launch on Wed, 09 Oct 1985 UTC launched from the Plesetsk Missile And Space Complex (PKMTR). Debris objects in space refer to the collection of defunct objects orbiting the Earth. Examples of debris include non-operational satellites, rocket bodies, and fragments generated from explosions, collisions, or faulty payload assembly.

Loading next visibility...
Identifier
16144, 1985-094G
Orbit
LEO
Country
Flag of CISCIS
Related business
Manufacturer
Yuzhnoe
Mission
Spacecraft
Bus & Motor
S5M, Unknown motor
Mass
1,600 kg wet, 1,600 kg dry
Launch date (UTC)
1985-10-09 (40 years ago)
Launch vehicle
Unknown
Launch site
Plesetsk Missile And Space Complex (PKMTR)
Object type
Payload
Rocket body
Debris
Shape & HBR
Unknown
Radar Cross Section
Large (>1 m²)

Expand to show TLE details & history
Last TLE update: 8 hours ago

TLE from 8 hours ago
0 SL-14 R/B
1 16144U 85094G   25298.79772551  .00000032  00000-0  13295-3 0  9999
2 16144  82.6123 200.4419 0035165 260.2206 163.0184 12.54891400834358
Epoch: 2025-10-25T19:08Z
TLE epoch observation values (Epoch: 2025-10-25T19:08:43.484Z)
Latitude
62.50752°
Longitude
-106.80722°
Altitude
1,481.109 km
Speed
7.117 km/s
True Right ascension
14h 19m 11s
True Declination
62° 22' 46"
Sunlit
Object was in daylight at epoch
Visualization orbit readout
Latitude
Unknown
Longitude
Unknown
Altitude
Unknown
Speed
Unknown
Apparent Right ascension
Unknown
Apparent Declination
Unknown
Sunlit
N/A
Visualization observer readout
Local Sidereal Time
22:13:10
Azimuth
Unknown
Elevation
Unknown
Doppler factor
Unknown
Orbital elements
Apogee altitude
1,468.929 km
Perigee altitude
1,413.934 km
Semi-major axis
7,819.569 km
Eccentricity
0.00352
Inclination
82.6123°
RAAN
200.4419°
Arg. of periapsis
260.2206°
True anomaly
163.1356°
Mean anomaly
163.0184°
Eccentric anomaly
163.07705°
Mean motion
3.13884 °/min
Orbital period
114.69 mins
BSTAR
0.00013295
Loading maneuver chart data...
Computing Atmospheric mass density...
Loading historical data...
Loading historical data...
Loading historical data...
Loading historical data...
Loading historical data...
Loading historical data...
Loading historical data...

Documentation

Showing up to 5 results
|